User: anonymous   Login
Location: Unspecified
(0.0000°N, 0.0000°E)
Time: 13:46:01
(UTC+00:00)
Language:

STRELA 3 - Orbit

View from above orbital plane
View from above orbital plane
View from above satellite
View from above satellite

Ground track
Ground track

The orbit data is extracted from the following two-line orbital elements,

1 37153U 10043B   17324.07230137 -.00000026  00000-0 -26478-3 0  9997
2 37153  82.4602 228.7139 0008329  42.0882 318.0831 12.40726299326132
Epoch (UTC): 20 November 2017 01:44:06
Eccentricity: 0.0008329
inclination: 82.4602°
perigee height: 1497 km
apogee height: 1510 km
right ascension of ascending node: 228.7139°
argument of perigee: 42.0882°
revolutions per day: 12.40726299
mean anomaly at epoch: 318.0831°
orbit number at epoch: 32613

The dashed part of the orbit path shows where the satellite is in the earth's shadow,  

DLR